Weather History for Paso Robles, CA

Change the Weather History Date:

Saturday, January 14, 2012

  Actual Average Record
Temperature  
Mean Temperature 45 °F 47 °F  
Max Temperature 64 °F 59 °F 77 °F (2009)
Min Temperature 25 °F 35 °F 14 °F (2007)
Degree Days  
Heating Degree Days 20 18  
Month to date heating degree days 218 257  
Since 1 July heating degree days 1327 1381  
Cooling Degree Days 0 0  
Month to date cooling degree days 0 0  
Year to date cooling degree days 0 0  
Moisture  
Dew Point 24 °F    
Average Humidity 50    
Maximum Humidity 81    
Minimum Humidity 18    
Precipitation  
Precipitation 0.00 in 0.09 in 1.10 in (1978)
Month to date precipitation 0.00 1.25  
Year to date precipitation 0.00 1.25  
Since 1 July precipitation 2.81 5.24  
Sea Level Pressure  
Sea Level Pressure 30.16 in    
Wind  
Wind Speed 1 mph (SE)    
Max Wind Speed 8 mph    
Max Gust Speed -    
Visibility 8 miles    
Events      
T = Trace of Precipitation, MM = Missing Value Source: NWS Daily Summary

Daily Weather History Graph

Daily Weather History Graph

Search for Another Location

Airport:

Trip Planner

Search our weather history database for the weather conditions in past years. The results will help you decide how hot, cold, wet, or windy it might be!

Date:

Astronomy

Jan. 14, 2012 Rise Set
Actual Time 7:11 AM PST 5:11 PM PST
Civil Twilight 6:44 AM PST 5:39 PM PST
Nautical Twilight 6:12 AM PST 6:10 PM PST
Astronomical Twilight 5:42 AM PST 6:41 PM PST
Moon 11:22 PM PST (1/14) 10:13 AM PST (1/14)
Length of Visible Light 10h 55m
Length of Day
9h 59m
Waning Gibbous, 67% of the Moon is Illuminated
Jan 14
Waning Gibbous
Jan 16
Last Quarter
Jan 22
New
Jan 30
First Quarter
Feb 7
Full

Hourly Weather History & Observations

Time (PST) Temp. Windchill Dew Point Humidity Pressure Visibility Wind Dir Wind Speed Gust Speed Precip Events Conditions
12:53 AM 36.0 °F - 27.0 °F 70% 30.19 in 6.0 mi Calm Calm - N/A   Haze
1:53 AM 30.9 °F - 24.1 °F 76% 30.19 in 5.0 mi Calm Calm - N/A   Haze
2:53 AM 30.0 °F - 23.0 °F 75% 30.19 in 5.0 mi Calm Calm - N/A   Haze
3:53 AM 30.0 °F - 21.9 °F 72% 30.18 in 7.0 mi Calm Calm - N/A   Clear
4:53 AM 28.0 °F - 21.0 °F 75% 30.19 in 7.0 mi Calm Calm - N/A   Clear
5:53 AM 25.0 °F - 19.9 °F 81% 30.20 in 6.0 mi Calm Calm - N/A   Haze
6:53 AM 25.0 °F - 19.0 °F 78% 30.22 in 7.0 mi Calm Calm - N/A   Clear
7:53 AM 26.1 °F - 21.0 °F 81% 30.23 in 6.0 mi Calm Calm - N/A   Haze
8:53 AM 36.0 °F - 24.1 °F 62% 30.23 in 7.0 mi Calm Calm - N/A   Clear
9:53 AM 39.9 °F - 25.0 °F 55% 30.24 in 8.0 mi Calm Calm - N/A   Clear
10:53 AM 46.0 °F - 26.1 °F 46% 30.22 in 9.0 mi Calm Calm - N/A   Clear
11:53 AM 55.0 °F - 25.0 °F 31% 30.18 in 10.0 mi Calm Calm - N/A   Clear
12:53 PM 59.0 °F - 24.1 °F 26% 30.14 in 9.0 mi Calm Calm - N/A   Clear
1:53 PM 62.1 °F - 23.0 °F 22% 30.12 in 10.0 mi Calm Calm - N/A   Clear
2:53 PM 64.0 °F - 19.9 °F 18% 30.10 in 10.0 mi Calm Calm - N/A   Clear
3:53 PM 61.0 °F - 27.0 °F 27% 30.10 in 10.0 mi Calm Calm - N/A   Clear
4:53 PM 59.0 °F - 26.1 °F 28% 30.09 in 10.0 mi Calm Calm - N/A   Clear
5:53 PM 48.9 °F - 26.1 °F 41% 30.11 in 10.0 mi ESE 3.5 mph - N/A   Clear
6:53 PM 44.1 °F 40.1 °F 26.1 °F 49% 30.11 in 10.0 mi SE 6.9 mph - N/A   Clear
7:53 PM 44.1 °F 42.5 °F 26.1 °F 49% 30.12 in 10.0 mi SSE 3.5 mph - N/A   Clear
8:53 PM 42.1 °F 40.2 °F 26.1 °F 53% 30.13 in 10.0 mi East 3.5 mph - N/A   Clear
9:53 PM 46.0 °F - 25.0 °F 44% 30.13 in 10.0 mi Calm Calm - N/A   Clear
10:53 PM 41.0 °F - 26.1 °F 55% 30.12 in 10.0 mi Calm Calm - N/A   Clear
11:53 PM 39.0 °F - 25.0 °F 57% 30.12 in 10.0 mi Calm Calm - N/A   Clear